Time,TemperatureF,DewpointF,PressureIn,WindDirection,WindDirectionDegrees,WindSpeedMPH,WindSpeedGustMPH,Humidity,HourlyPrecipIn,Conditions,Clouds,dailyrainin,SoftwareType,DateUTC
2013-11-20 00:14:00,52.0,33.0,30.01,SSE,155,4.0,12.0,48,0.00,,,0.00,weatherlink.com 1.10,2013-11-20 06:14:00,
2013-11-20 00:29:00,51.8,32.0,30.01,SE,140,6.0,14.0,48,0.00,,,0.00,weatherlink.com 1.10,2013-11-20 06:29:00,
2013-11-20 00:44:00,51.7,32.0,30.00,SE,135,1.0,10.0,48,0.00,,,0.00,weatherlink.com 1.10,2013-11-20 06:44:00,
2013-11-20 00:59:00,51.8,33.0,30.01,SE,134,3.0,14.0,49,0.00,,,0.00,weatherlink.com 1.10,2013-11-20 06:59:00,
2013-11-20 01:14:00,51.9,33.0,30.01,ESE,114,5.0,10.0,48,0.00,,,0.00,weatherlink.com 1.10,2013-11-20 07:14:00,
2013-11-20 01:29:00,52.0,33.0,30.00,SSW,209,3.0,13.0,48,0.00,,,0.00,weatherlink.com 1.10,2013-11-20 07:29:00,
2013-11-20 01:44:00,51.8,32.0,30.00,SE,142,5.0,7.0,48,0.00,,,0.00,weatherlink.com 1.10,2013-11-20 07:44:00,
2013-11-20 01:59:00,51.7,33.0,29.99,SSE,148,4.0,10.0,49,0.00,,,0.00,weatherlink.com 1.10,2013-11-20 07:59:00,
2013-11-20 02:14:00,51.9,33.0,29.99,SSE,163,6.0,11.0,49,0.00,,,0.00,weatherlink.com 1.10,2013-11-20 08:14:00,
2013-11-20 02:29:00,51.6,33.0,29.99,ESE,103,5.0,10.0,49,0.00,,,0.00,weatherlink.com 1.10,2013-11-20 08:29:00,
2013-11-20 02:44:00,51.5,33.0,29.99,SE,126,1.0,10.0,49,0.00,,,0.00,weatherlink.com 1.10,2013-11-20 08:44:00,
2013-11-20 02:59:00,51.3,33.0,29.99,SSE,160,1.0,9.0,50,0.00,,,0.00,weatherlink.com 1.10,2013-11-20 08:59:00,
2013-11-20 03:14:00,51.1,33.0,29.99,SE,142,2.0,8.0,51,0.00,,,0.00,weatherlink.com 1.10,2013-11-20 09:14:00,
2013-11-20 03:29:00,50.9,33.0,29.99,SSE,164,5.0,11.0,51,0.00,,,0.00,weatherlink.com 1.10,2013-11-20 09:29:00,
2013-11-20 03:44:00,50.7,33.0,29.99,SSE,155,3.0,10.0,51,0.00,,,0.00,weatherlink.com 1.10,2013-11-20 09:44:00,
2013-11-20 03:59:00,50.4,33.0,30.00,SE,142,4.0,9.0,52,0.00,,,0.00,weatherlink.com 1.10,2013-11-20 09:59:00,
2013-11-20 04:14:00,49.9,33.0,29.99,South,173,3.0,11.0,53,0.00,,,0.00,weatherlink.com 1.10,2013-11-20 10:14:00,
2013-11-20 04:29:00,49.6,33.0,29.99,SSE,165,4.0,11.0,53,0.00,,,0.00,weatherlink.com 1.10,2013-11-20 10:29:00,
2013-11-20 04:44:00,49.2,33.0,29.99,SE,146,2.0,9.0,54,0.00,,,0.00,weatherlink.com 1.10,2013-11-20 10:44:00,
2013-11-20 04:59:00,48.9,33.0,29.99,SE,145,3.0,7.0,55,0.00,,,0.00,weatherlink.com 1.10,2013-11-20 10:59:00,
2013-11-20 05:14:00,48.8,33.0,29.98,SE,134,1.0,10.0,55,0.00,,,0.00,weatherlink.com 1.10,2013-11-20 11:14:00,
2013-11-20 05:29:00,48.6,33.0,29.97,SSE,160,3.0,9.0,55,0.00,,,0.00,weatherlink.com 1.10,2013-11-20 11:29:00,
2013-11-20 05:44:00,48.4,33.0,29.97,SE,138,4.0,13.0,56,0.00,,,0.00,weatherlink.com 1.10,2013-11-20 11:44:00,
2013-11-20 05:59:00,48.1,33.0,29.96,SE,127,4.0,11.0,56,0.00,,,0.00,weatherlink.com 1.10,2013-11-20 11:59:00,
2013-11-20 06:14:00,47.9,33.0,29.97,East,93,7.0,12.0,56,0.00,,,0.00,weatherlink.com 1.10,2013-11-20 12:14:00,
2013-11-20 06:29:00,47.8,33.0,29.98,SSW,207,5.0,11.0,57,0.00,,,0.00,weatherlink.com 1.10,2013-11-20 12:29:00,
2013-11-20 06:44:00,48.0,33.0,29.99,SW,217,6.0,13.0,56,0.00,,,0.00,weatherlink.com 1.10,2013-11-20 12:44:00,
2013-11-20 06:59:00,48.3,33.0,30.00,ESE,116,2.0,10.0,56,0.00,,,0.00,weatherlink.com 1.10,2013-11-20 12:59:00,
2013-11-20 07:14:00,48.5,33.0,30.00,South,172,2.0,8.0,56,0.00,,,0.00,weatherlink.com 1.10,2013-11-20 13:14:00,
2013-11-20 07:29:00,48.5,33.0,29.99,South,183,8.0,12.0,56,0.00,,,0.00,weatherlink.com 1.10,2013-11-20 13:29:00,
2013-11-20 07:44:00,48.5,33.0,29.99,SSE,155,4.0,13.0,56,0.00,,,0.00,weatherlink.com 1.10,2013-11-20 13:44:00,
2013-11-20 07:59:00,48.6,33.0,29.99,SSE,155,5.0,10.0,56,0.00,,,0.00,weatherlink.com 1.10,2013-11-20 13:59:00,
2013-11-20 08:14:00,48.7,33.0,29.99,ESE,119,7.0,12.0,56,0.00,,,0.00,weatherlink.com 1.10,2013-11-20 14:14:00,
2013-11-20 08:29:00,49.0,34.0,29.99,SSW,200,6.0,12.0,56,0.00,,,0.00,weatherlink.com 1.10,2013-11-20 14:29:00,
2013-11-20 08:44:00,49.2,34.0,30.00,SW,220,4.0,8.0,56,0.00,,,0.00,weatherlink.com 1.10,2013-11-20 14:44:00,
2013-11-20 09:00:00,49.5,34.0,29.99,SE,132,7.0,11.0,55,0.00,,,0.00,weatherlink.com 1.10,2013-11-20 15:00:00,
2013-11-20 09:15:00,49.8,34.0,30.00,SE,144,2.0,14.0,55,0.00,,,0.00,weatherlink.com 1.10,2013-11-20 15:15:00,
2013-11-20 09:30:00,50.4,34.0,29.99,SSE,163,5.0,15.0,54,0.00,,,0.00,weatherlink.com 1.10,2013-11-20 15:30:00,
2013-11-20 09:45:00,50.8,34.0,30.00,SSE,166,8.0,11.0,54,0.00,,,0.00,weatherlink.com 1.10,2013-11-20 15:45:00,
2013-11-20 10:00:00,51.4,35.0,29.99,SSE,147,6.0,10.0,54,0.00,,,0.00,weatherlink.com 1.10,2013-11-20 16:00:00,
2013-11-20 10:15:00,51.8,35.0,29.99,SE,132,7.0,12.0,53,0.00,,,0.00,weatherlink.com 1.10,2013-11-20 16:15:00,
2013-11-20 10:30:00,52.2,35.0,30.00,SE,144,4.0,11.0,52,0.00,,,0.00,weatherlink.com 1.10,2013-11-20 16:30:00,
2013-11-20 10:45:00,52.6,35.0,30.00,SSE,152,2.0,10.0,52,0.00,,,0.00,weatherlink.com 1.10,2013-11-20 16:45:00,
2013-11-20 11:00:00,53.2,36.0,29.99,SE,137,3.0,13.0,52,0.00,,,0.00,weatherlink.com 1.10,2013-11-20 17:00:00,
2013-11-20 11:15:00,53.8,36.0,29.99,SE,137,7.0,9.0,52,0.00,,,0.00,weatherlink.com 1.10,2013-11-20 17:15:00,
2013-11-20 11:30:00,54.5,37.0,29.98,South,188,4.0,10.0,52,0.00,,,0.00,weatherlink.com 1.10,2013-11-20 17:30:00,
2013-11-20 11:45:00,55.1,37.0,29.97,East,84,2.0,6.0,51,0.00,,,0.00,weatherlink.com 1.10,2013-11-20 17:45:00,
2013-11-20 12:00:00,55.3,37.0,29.96,ESE,105,1.0,9.0,51,0.00,,,0.00,weatherlink.com 1.10,2013-11-20 18:00:00,
2013-11-20 12:15:00,56.0,38.0,29.95,ESE,110,2.0,12.0,51,0.00,,,0.00,weatherlink.com 1.10,2013-11-20 18:15:00,
2013-11-20 12:30:00,56.3,39.0,29.94,South,182,5.0,10.0,52,0.00,,,0.00,weatherlink.com 1.10,2013-11-20 18:30:00,
2013-11-20 12:45:00,56.6,39.0,29.93,SE,141,2.0,10.0,52,0.00,,,0.00,weatherlink.com 1.10,2013-11-20 18:45:00,
2013-11-20 13:00:00,57.0,39.0,29.92,SE,140,0.0,12.0,52,0.00,,,0.00,weatherlink.com 1.10,2013-11-20 19:00:00,
2013-11-20 13:15:00,57.0,40.0,29.91,ESE,115,4.0,10.0,53,0.00,,,0.00,weatherlink.com 1.10,2013-11-20 19:15:00,
2013-11-20 13:30:00,57.7,41.0,29.90,SE,139,4.0,11.0,54,0.00,,,0.00,weatherlink.com 1.10,2013-11-20 19:30:00,
2013-11-20 13:45:00,58.2,41.0,29.89,ESE,123,2.0,11.0,53,0.00,,,0.00,weatherlink.com 1.10,2013-11-20 19:45:00,
2013-11-20 14:00:00,58.3,41.0,29.89,SE,128,2.0,12.0,53,0.00,,,0.00,weatherlink.com 1.10,2013-11-20 20:00:00,
2013-11-20 14:15:00,58.5,42.0,29.88,SSE,165,5.0,13.0,54,0.00,,,0.00,weatherlink.com 1.10,2013-11-20 20:15:00,
2013-11-20 14:30:00,59.2,43.0,29.88,South,187,4.0,11.0,56,0.00,,,0.00,weatherlink.com 1.10,2013-11-20 20:30:00,
2013-11-20 14:45:00,59.9,45.0,29.87,SSE,149,3.0,13.0,58,0.00,,,0.00,weatherlink.com 1.10,2013-11-20 20:45:00,
2013-11-20 15:00:00,60.5,45.0,29.87,SSE,163,8.0,14.0,57,0.00,,,0.00,weatherlink.com 1.10,2013-11-20 21:00:00,
2013-11-20 15:15:00,60.5,45.0,29.87,SE,142,6.0,12.0,58,0.00,,,0.00,weatherlink.com 1.10,2013-11-20 21:15:00,
2013-11-20 15:30:00,60.8,47.0,29.87,SSW,198,3.0,18.0,60,0.00,,,0.00,weatherlink.com 1.10,2013-11-20 21:30:00,
2013-11-20 15:45:00,60.9,47.0,29.87,SSE,157,4.0,14.0,61,0.00,,,0.00,weatherlink.com 1.10,2013-11-20 21:45:00,
2013-11-20 16:00:00,61.1,48.0,29.88,SSE,165,4.0,16.0,62,0.00,,,0.00,weatherlink.com 1.10,2013-11-20 22:00:00,
2013-11-20 16:15:00,60.9,49.0,29.88,SSE,151,5.0,13.0,64,0.00,,,0.00,weatherlink.com 1.10,2013-11-20 22:15:00,
2013-11-20 16:30:00,60.8,49.0,29.88,SW,226,2.0,13.0,65,0.00,,,0.00,weatherlink.com 1.10,2013-11-20 22:30:00,
2013-11-20 16:45:00,60.6,49.0,29.89,SE,134,6.0,9.0,66,0.00,,,0.00,weatherlink.com 1.10,2013-11-20 22:45:00,
2013-11-20 17:01:00,60.4,49.0,29.89,South,175,3.0,13.0,67,0.00,,,0.00,weatherlink.com 1.10,2013-11-20 23:01:00,
2013-11-20 17:16:00,60.3,50.0,29.89,SE,136,2.0,10.0,68,0.00,,,0.00,weatherlink.com 1.10,2013-11-20 23:16:00,
2013-11-20 17:31:00,60.0,50.0,29.89,East,101,6.0,9.0,69,0.00,,,0.00,weatherlink.com 1.10,2013-11-20 23:31:00,
2013-11-20 17:46:00,59.8,50.0,29.89,SSE,155,5.0,13.0,69,0.00,,,0.00,weatherlink.com 1.10,2013-11-20 23:46:00,
2013-11-20 18:01:00,59.5,50.0,29.89,SE,132,2.0,7.0,70,0.00,,,0.00,weatherlink.com 1.10,2013-11-21 00:01:00,
2013-11-20 18:16:00,59.1,49.0,29.90,SSE,152,2.0,7.0,70,0.00,,,0.00,weatherlink.com 1.10,2013-11-21 00:16:00,
2013-11-20 18:31:00,58.9,49.0,29.91,South,173,1.0,7.0,70,0.00,,,0.00,weatherlink.com 1.10,2013-11-21 00:31:00,
2013-11-20 18:46:00,58.8,49.0,29.91,SSW,192,2.0,8.0,70,0.00,,,0.00,weatherlink.com 1.10,2013-11-21 00:46:00,
2013-11-20 19:01:00,58.8,49.0,29.92,SE,142,2.0,5.0,71,0.00,,,0.00,weatherlink.com 1.10,2013-11-21 01:01:00,
2013-11-20 19:16:00,58.6,49.0,29.91,SE,134,2.0,5.0,71,0.00,,,0.00,weatherlink.com 1.10,2013-11-21 01:16:00,
2013-11-20 19:31:00,58.3,49.0,29.91,ESE,120,5.0,6.0,72,0.00,,,0.00,weatherlink.com 1.10,2013-11-21 01:31:00,
2013-11-20 19:46:00,58.4,50.0,29.91,SSE,159,1.0,5.0,73,0.00,,,0.00,weatherlink.com 1.10,2013-11-21 01:46:00,
2013-11-20 20:01:00,58.8,51.0,29.90,SE,136,8.0,10.0,74,0.00,,,0.00,weatherlink.com 1.10,2013-11-21 02:01:00,
2013-11-20 20:16:00,59.5,52.0,29.91,SSE,161,8.0,14.0,75,0.00,,,0.00,weatherlink.com 1.10,2013-11-21 02:16:00,
2013-11-20 20:31:00,60.0,52.0,29.91,SE,129,0.0,16.0,75,0.00,,,0.00,weatherlink.com 1.10,2013-11-21 02:31:00,
2013-11-20 20:46:00,60.3,53.0,29.92,South,176,4.0,11.0,76,0.00,,,0.00,weatherlink.com 1.10,2013-11-21 02:46:00,
2013-11-20 21:16:00,61.2,54.0,29.92,SSE,150,3.0,11.0,76,0.00,,,0.00,weatherlink.com 1.10,2013-11-21 03:16:00,
2013-11-20 21:31:00,61.4,53.0,29.92,SE,138,3.0,17.0,74,0.00,,,0.00,weatherlink.com 1.10,2013-11-21 03:31:00,
2013-11-20 21:46:00,61.4,53.0,29.92,SSE,165,10.0,15.0,74,0.00,,,0.00,weatherlink.com 1.10,2013-11-21 03:46:00,
2013-11-20 22:01:00,61.2,53.0,29.93,SSE,150,4.0,17.0,74,0.00,,,0.00,weatherlink.com 1.10,2013-11-21 04:01:00,
2013-11-20 22:16:00,61.1,53.0,29.93,SE,142,6.0,13.0,75,0.00,,,0.00,weatherlink.com 1.10,2013-11-21 04:16:00,
2013-11-20 22:31:00,61.0,53.0,29.92,WSW,238,9.0,16.0,75,0.00,,,0.00,weatherlink.com 1.10,2013-11-21 04:31:00,
2013-11-20 22:46:00,60.9,53.0,29.94,ESE,122,9.0,14.0,75,0.00,,,0.00,weatherlink.com 1.10,2013-11-21 04:46:00,
2013-11-20 23:01:00,60.9,53.0,29.94,ESE,120,7.0,13.0,75,0.00,,,0.00,weatherlink.com 1.10,2013-11-21 05:01:00,
2013-11-20 23:16:00,61.1,53.0,29.94,ESE,104,10.0,14.0,75,0.00,,,0.00,weatherlink.com 1.10,2013-11-21 05:16:00,
2013-11-20 23:31:00,61.1,54.0,29.94,South,169,7.0,14.0,76,0.00,,,0.00,weatherlink.com 1.10,2013-11-21 05:31:00,
2013-11-20 23:46:00,60.9,54.0,29.93,ESE,108,8.0,16.0,79,0.00,,,0.00,weatherlink.com 1.10,2013-11-21 05:46:00,